Weather History for KBWI - November, 2010

Change the Weather History Date:

Tuesday, November 16, 2010

  Actual Average Record
Temperature  
Mean Temperature 54 °F 46 °F  
Max Temperature 61 °F 56 °F 76 °F (1928)
Min Temperature 47 °F 37 °F 19 °F (1996)
Degree Days  
Heating Degree Days 11 19  
Month to date heating degree days 275 260  
Since 1 July heating degree days 528 607  
Cooling Degree Days 0 0  
Month to date cooling degree days 0 0  
Year to date cooling degree days 1742 1163  
Growing Degree Days 4 (Base 50)    
Moisture  
Dew Point 51 °F    
Average Humidity 95    
Maximum Humidity 100    
Minimum Humidity 89    
Precipitation  
Precipitation 0.38 in 0.10 in 3.11 in (1926)
Month to date precipitation 1.64 1.72  
Year to date precipitation 41.11 36.93  
Snow  
Snow 0.00 in 0.00 in T in (2000)
Month to date snowfall 0.0 0.1  
Since 1 July snowfall 0.0 0.1  
Snow Depth 0.00 in    
Sea Level Pressure  
Sea Level Pressure 29.88 in    
Wind  
Wind Speed 7 mph (East)    
Max Wind Speed 21 mph    
Max Gust Speed 31 mph    
Visibility 4 miles    
Events Rain    
T = Trace of Precipitation, MM = Missing Value Source: NWS Daily Summary

Daily Weather History Graph

Daily Weather History Graph

Search for Another Location

Airport or City:

Trip Planner

Search our weather history database for the weather conditions in past years. The results will help you decide how hot, cold, wet, or windy it might be!

Date:

Astronomy

Nov. 16, 2010 Rise Set
Actual Time 6:51 AM EST 4:51 PM EST
Civil Twilight 6:22 AM EST 5:20 PM EST
Nautical Twilight 5:49 AM EST 5:52 PM EST
Astronomical Twilight 5:18 AM EST 6:24 PM EST
Moon 1:56 PM EST (11/16) 1:52 AM EST (11/16)
Length of Visible Light 10h 57m
Length of Day
10h 00m
Waxing Gibbous, 77% of the Moon is Illuminated
Nov 16
Waxing Gibbous
Nov 21
Full
Nov 28
Last Quarter
Dec 5
New
Dec 13
First Quarter

Hourly Weather History & Observations

Time (EST) Temp. Dew Point Humidity Pressure Visibility Wind Dir Wind Speed Gust Speed Precip Events Conditions
12:54 AM 48.0 °F 46.9 °F 96% 30.02 in 3.0 mi Calm Calm - 0.05 in Rain Light Rain
1:22 AM 48.2 °F 46.4 °F 93% 29.99 in 2.5 mi NE 3.5 mph - 0.01 in Rain Light Rain
1:54 AM 48.0 °F 46.0 °F 93% 30.01 in 2.5 mi Calm Calm - 0.01 in   Overcast
2:54 AM 48.0 °F 46.9 °F 96% 30.00 in 2.0 mi Calm Calm - 0.01 in Rain Light Rain
3:54 AM 48.0 °F 46.9 °F 96% 30.02 in 2.0 mi Calm Calm - 0.01 in   Overcast
4:54 AM 48.0 °F 46.9 °F 96% 30.03 in 2.0 mi Calm Calm - 0.01 in Rain Light Rain
5:45 AM 48.2 °F 48.2 °F 100% 30.02 in 1.5 mi Calm Calm - 0.02 in Rain Light Rain
5:54 AM 48.9 °F 48.0 °F 97% 30.01 in 1.5 mi ENE 3.5 mph - 0.03 in Rain Light Rain
6:49 AM 48.2 °F 48.2 °F 100% 30.00 in 1.0 mi East 6.9 mph - 0.01 in Rain Light Rain
6:52 AM 48.2 °F 48.2 °F 100% 29.99 in 0.8 mi East 8.1 mph - 0.01 in Rain Light Rain
6:54 AM 48.9 °F 48.0 °F 97% 29.99 in 0.8 mi East 9.2 mph - 0.01 in Rain Light Rain
7:49 AM 50.0 °F 48.2 °F 94% 30.00 in 1.5 mi ESE 6.9 mph - 0.01 in Rain Light Rain
7:54 AM 50.0 °F 48.0 °F 93% 30.01 in 1.5 mi East 4.6 mph - 0.01 in Rain Light Rain
8:02 AM 50.0 °F 48.2 °F 94% 30.01 in 1.5 mi ESE 4.6 mph - 0.00 in Rain Light Rain
8:16 AM 50.0 °F 48.2 °F 94% 30.01 in 1.5 mi East 4.6 mph - 0.01 in Rain Light Rain
8:35 AM 50.0 °F 48.2 °F 94% 30.01 in 1.8 mi ENE 6.9 mph - 0.02 in Rain Light Rain
8:54 AM 51.1 °F 48.9 °F 92% 30.01 in 1.8 mi East 6.9 mph - 0.03 in Rain Light Rain
9:17 AM 51.8 °F 48.2 °F 88% 30.01 in 1.8 mi East 8.1 mph - N/A Rain Light Rain
9:54 AM 51.1 °F 48.9 °F 92% 30.01 in 1.5 mi East 4.6 mph - 0.02 in Rain Light Rain
10:54 AM 52.0 °F 50.0 °F 93% 29.98 in 1.5 mi East 8.1 mph - 0.04 in Rain Light Rain
11:20 AM 51.8 °F 50.0 °F 94% 29.95 in 2.0 mi ENE 8.1 mph - 0.00 in   Overcast
11:51 AM 51.8 °F 50.0 °F 94% 29.93 in 2.0 mi East 10.4 mph - 0.00 in Rain Light Rain
11:54 AM 52.0 °F 50.0 °F 93% 29.93 in 2.0 mi East 8.1 mph - 0.00 in Rain Light Rain
12:54 PM 53.1 °F 51.1 °F 93% 29.89 in 2.0 mi ENE 8.1 mph - 0.00 in Rain Light Rain
1:11 PM 53.6 °F 51.8 °F 94% 29.87 in 2.0 mi ENE 11.5 mph - 0.00 in Rain Light Rain
1:33 PM 53.6 °F 51.8 °F 94% 29.85 in 3.0 mi East 10.4 mph - 0.00 in   Overcast
1:54 PM 55.0 °F 52.0 °F 89% 29.85 in 4.0 mi ENE 9.2 mph - 0.00 in   Overcast
2:54 PM 55.9 °F 53.1 °F 90% 29.81 in 5.0 mi East 12.7 mph - 0.00 in   Overcast
3:54 PM 55.9 °F 53.1 °F 90% 29.80 in 5.0 mi East 9.2 mph - 0.04 in Rain Light Rain
4:54 PM 55.0 °F 53.1 °F 93% 29.77 in 4.0 mi East 6.9 mph - 0.05 in Rain Light Rain
5:54 PM 55.0 °F 53.1 °F 93% 29.72 in 8.0 mi East 8.1 mph - 0.02 in   Overcast
6:49 PM 57.2 °F 53.6 °F 88% 29.71 in 10.0 mi ESE 5.8 mph - 0.00 in Rain Light Rain
6:54 PM 57.9 °F 54.0 °F 87% 29.71 in 10.0 mi ESE 6.9 mph - 0.00 in Rain Light Rain
7:47 PM 59.0 °F 55.4 °F 88% 29.66 in 10.0 mi ESE 10.4 mph - 0.01 in   Overcast
7:54 PM 59.0 °F 55.9 °F 90% 29.63 in 10.0 mi ESE 12.7 mph 20.7 mph 0.01 in   Overcast
7:57 PM 59.0 °F 57.2 °F 94% 29.65 in 10.0 mi ESE 5.8 mph 20.7 mph N/A   Overcast
8:54 PM 60.8 °F 57.2 °F 88% 29.64 in 10.0 mi SSE 13.8 mph 31.1 mph N/A   Overcast
9:54 PM 61.0 °F 59.0 °F 93% 29.61 in 5.0 mi SSE 15.0 mph 28.8 mph 0.02 in   Overcast
10:54 PM 61.0 °F 59.0 °F 93% 29.60 in 10.0 mi SSE 12.7 mph 25.3 mph 0.01 in   Overcast
11:54 PM 61.0 °F 59.0 °F 93% 29.56 in 10.0 mi SE 10.4 mph 19.6 mph N/A   Overcast